CDT,Max TemperatureF,Mean TemperatureF,Min TemperatureF,Max Dew PointF,MeanDew PointF,Min DewpointF,Max Humidity, Mean Humidity, Min Humidity, Max Sea Level PressureIn, Mean Sea Level PressureIn, Min Sea Level PressureIn, Max VisibilityMiles, Mean VisibilityMiles, Min VisibilityMiles, Max Wind SpeedMPH, Mean Wind SpeedMPH, Max Gust SpeedMPH,PrecipitationIn, CloudCover, Events, WindDirDegrees
2013-5-1,78,71,64,68,64,63,94,88,65,29.92,29.89,29.85,10,10,4,16,8,21,0.38,8,Thunderstorm,98
2013-5-2,69,66,64,66,64,61,100,94,83,29.99,29.95,29.89,10,8,2,9,4,,1.02,8,,10
2013-5-3,64,53,41,64,49,39,100,89,71,30.04,30.00,29.92,10,7,2,16,8,24,0.13,6,,329
2013-5-4,69,53,37,52,41,36,100,67,33,30.02,29.94,29.83,10,10,10,15,5,23,0.00,2,,207
2013-5-5,62,52,42,46,42,39,93,70,48,30.03,29.98,29.90,10,10,10,15,5,22,0.00,4,,329
2013-5-6,71,58,44,57,50,43,94,74,49,30.04,29.99,29.94,10,10,10,14,4,21,0.00,3,,260
2013-5-7,78,64,51,57,54,48,94,71,44,30.07,30.02,29.97,10,10,10,9,2,,0.00,1,,326
2013-5-8,80,66,53,61,57,52,94,73,42,30.12,30.06,30.02,10,10,4,9,2,,0.00,0,,204
2013-5-9,80,70,59,66,62,57,94,74,54,30.12,30.05,29.99,10,10,9,12,6,,0.00,3,Thunderstorm,179
2013-5-10,75,68,62,66,64,61,94,86,69,30.05,29.97,29.87,10,10,6,17,8,22,1.42,5,Thunderstorm,170
2013-5-11,75,68,60,66,63,57,100,85,65,30.09,30.01,29.93,10,9,2,13,4,16,0.00,3,,345
2013-5-12,71,61,51,59,53,45,100,73,43,30.19,30.14,30.07,10,9,2,14,4,18,0.00,0,,6
2013-5-13,78,62,46,55,47,43,93,64,32,30.31,30.23,30.18,10,10,8,9,2,,0.00,0,,130
2013-5-14,82,68,53,59,54,50,94,63,37,30.28,30.20,30.13,10,10,8,14,5,18,0.00,0,,201
2013-5-15,82,70,57,64,59,54,94,70,45,30.19,30.12,30.00,10,10,5,13,5,16,0.00,0,,186
2013-5-16,80,70,60,66,61,57,94,72,54,30.03,29.95,29.83,10,10,5,21,7,26,0.00,2,,175
2013-5-17,84,76,69,72,68,63,94,77,62,30.00,29.96,29.92,10,10,5,16,8,20,0.00,5,,187
2013-5-18,87,79,71,72,70,66,94,76,55,30.05,30.00,29.96,10,9,5,14,8,18,0.00,4,,188
2013-5-19,87,79,71,72,69,66,94,75,55,30.01,29.96,29.91,10,9,2,15,9,21,0.00,3,,179
2013-5-20,89,81,73,73,71,70,94,75,55,30.00,29.94,29.86,10,10,10,15,10,25,0.00,4,,175
2013-5-21,89,80,69,73,71,63,94,75,55,29.95,29.90,29.78,10,10,7,18,9,26,0.00,4,Thunderstorm,179
2013-5-22,80,72,64,72,67,63,100,85,70,29.97,29.92,29.81,10,10,4,21,9,28,1.28,5,Thunderstorm,179
2013-5-23,87,76,66,73,69,64,100,79,55,30.07,30.01,29.96,10,10,7,12,3,,0.00,3,,194
2013-5-24,82,74,66,70,67,64,100,79,61,30.19,30.14,30.05,10,9,1,13,3,17,0.00,2,,54
2013-5-25,84,74,64,66,60,54,83,63,50,30.24,30.18,30.13,10,10,10,10,6,,0.00,0,,96
2013-5-26,82,74,66,64,62,57,88,68,51,30.19,30.14,30.09,10,10,10,12,4,,0.00,0,,151
2013-5-27,87,76,66,70,66,63,88,72,49,30.12,30.07,29.99,10,10,10,14,7,18,0.00,1,,166
2013-5-28,86,78,69,72,68,63,94,74,51,30.05,30.01,29.97,10,10,10,14,9,20,0.00,3,Thunderstorm,167
2013-5-29,84,76,68,73,70,63,94,80,66,30.01,29.97,29.91,10,10,9,17,9,25,0.00,2,Thunderstorm,143
2013-5-30,87,80,73,75,72,72,94,82,62,29.99,29.95,29.90,10,10,9,16,10,26,0.08,5,,151
2013-5-31,87,80,73,75,73,70,94,81,62,30.00,29.95,29.90,10,10,10,17,9,21,0.01,5,,162